Overview Statistics Trail Chart Weather Telemetry Raw packets
 

This is the latest recevied weather packets stored in our database for station/object CE3TDM-10. If no packets are shown the sender has not sent any weather packets the latest 10 day(s).

<< 17 18 19 20 21 22 23 >>
Time Temp. Humidity Pressure Rain* Wind** Luminosity Snow
1788057995 28.33° C 28% 920.1 hPa - - - -
1788056195 28.89° C 28% 920.2 hPa - - - -
1788054395 28.89° C 28% 920.3 hPa - - - -
1788053495 27.78° C 29% 920.4 hPa - - - -
1788052595 24.44° C 31% 920.5 hPa - - - -
1788051696 17.78° C 32% 920.5 hPa - - - -
1788050795 18.89° C 31% 920.7 hPa - - - -
1788049897 22.22° C 30% 920.7 hPa - - - -
1788049080 25° C 31% 920.7 hPa - - - -
1788048995 25° C 31% 920.7 hPa - - - -
1788048104 24.44° C 31% 920.7 hPa - - - -
1788047192 24.44° C 32% 920.8 hPa - - - -
1788044492 24.44° C 30% 920.7 hPa - - - -
1788040892 25.56° C 30% 920.1 hPa - - - -
1788039092 26.67° C 29% 920.1 hPa - - - -
1788037292 27.78° C 28% 920.2 hPa - - - -
1788034380 37.22° C 27% 920.1 hPa - - - -
1788033691 37.22° C 27% 920.1 hPa - - - -
1788029191 33.33° C 28% 920.4 hPa - - - -
1788028291 32.78° C 28% 920.5 hPa - - - -
1788027391 32.78° C 28% 920.7 hPa - - - -
1788026491 33.33° C 28% 920.7 hPa - - - -
1788025590 33.33° C 29% 920.9 hPa - - - -
1788024690 31.67° C 29% 921.2 hPa - - - -
1788023825 38.89° C 17% 921.3 hPa - - - -

* Rain since midnight (hover to see other rain measurements)
** Current wind speed in m/s (hover to see current wind gust speed)